Defiance, OH

12:18 PM EST on November 20, 2019 (GMT -0500)
Defiance Memorial

Weather History for KDFI - September, 2019

Change the Weather History Date:

Sunday, September 22, 2019

  Actual Average Record
Temperature  
Mean Temperature 78 °F -  
Max Temperature 87 °F 71 °F 95 °F (1941)
Min Temperature 70 °F 49 °F 35 °F (1999)
Cooling Degree Days 14    
Growing Degree Days 28 (Base 50)    
Moisture  
Dew Point 59 °F    
Average Humidity 53    
Maximum Humidity 68    
Minimum Humidity 36    
Precipitation  
Precipitation 0.00 in - - ()
Sea Level Pressure  
Sea Level Pressure 29.98 in    
Wind  
Wind Speed 9 mph (SSW)    
Max Wind Speed 21 mph    
Max Gust Speed 36 mph    
Visibility 10 miles    
Events Rain    
Averages and records for this station are not official NWS values.
T = Trace of Precipitation, MM = Missing Value Source: NWS Daily Summary

Daily Weather History Graph

Daily Weather History Graph

Search for Another Location

Airport or City:

Astronomy

Sep. 22, 2019 Rise Set
Actual Time 7:24 AM EDT 7:35 PM EDT
Civil Twilight 6:57 AM EDT 8:02 PM EDT
Nautical Twilight 6:25 AM EDT 8:35 PM EDT
Astronomical Twilight 5:52 AM EDT 9:07 PM EDT
Moon 12:09 AM EDT (9/22) 3:34 PM EDT (9/22)
Length of Visible Light 13h 05m
Length of Day
12h 10m
Last Quarter, 44% of the Moon is Illuminated
Sep 22
Last Quarter
Sep 28
New
Oct 5
First Quarter
Oct 13
Full
Oct 21
Last Quarter

Hourly Weather History & Observations

Time (EDT) Temp. Heat Index Dew Point Humidity Pressure Visibility Wind Dir Wind Speed Gust Speed Precip Events Conditions
12:53 AM 73.9 °F - 62.1 °F 66% 30.07 in 10.0 mi South 6.9 mph - N/A   Partly Cloudy
1:53 AM 73.0 °F - 62.1 °F 68% 30.07 in 10.0 mi South 6.9 mph - N/A   Mostly Cloudy
2:53 AM 73.9 °F - 62.1 °F 66% 30.06 in 10.0 mi South 5.8 mph - N/A   Overcast
3:53 AM 73.0 °F - 61.0 °F 66% 30.06 in 10.0 mi SSW 5.8 mph - N/A   Mostly Cloudy
4:53 AM 73.0 °F - 61.0 °F 66% 30.06 in 10.0 mi SSW 5.8 mph - N/A   Overcast
5:53 AM 72.0 °F - 61.0 °F 68% 30.05 in 10.0 mi SSW 5.8 mph - N/A   Overcast
6:53 AM 72.0 °F - 59.0 °F 64% 30.05 in 10.0 mi South 6.9 mph - N/A   Mostly Cloudy
7:53 AM 70.0 °F - 59.0 °F 68% 30.05 in 10.0 mi South 5.8 mph - N/A   Clear
8:53 AM 71.1 °F - 60.1 °F 68% 30.06 in 10.0 mi South 8.1 mph - N/A   Clear
9:53 AM 75.0 °F - 60.1 °F 60% 30.05 in 10.0 mi SSW 11.5 mph - N/A   Clear
10:53 AM 80.1 °F 80.9 °F 60.1 °F 50% 30.04 in 10.0 mi SW 13.8 mph 23.0 mph N/A   Clear
11:53 AM 84.0 °F 84.0 °F 60.1 °F 44% 30.01 in 10.0 mi SSW 9.2 mph 21.9 mph N/A   Clear
12:53 PM 84.9 °F 84.4 °F 59.0 °F 41% 29.98 in 10.0 mi SSW 20.7 mph 35.7 mph N/A   Clear
1:53 PM 86.0 °F 85.4 °F 59.0 °F 40% 29.96 in 10.0 mi SSW 13.8 mph 33.4 mph N/A   Scattered Clouds
2:53 PM 87.1 °F 85.9 °F 57.0 °F 36% 29.94 in 10.0 mi SW 17.3 mph 33.4 mph N/A   Partly Cloudy
3:53 PM 87.1 °F 85.9 °F 57.0 °F 36% 29.92 in 10.0 mi SW 18.4 mph 31.1 mph N/A   Partly Cloudy
4:53 PM 86.0 °F 84.7 °F 55.9 °F 36% 29.90 in 10.0 mi SSW 15.0 mph 24.2 mph N/A   Clear
5:53 PM 84.0 °F 83.5 °F 57.9 °F 41% 29.90 in 10.0 mi SSW 9.2 mph 19.6 mph N/A   Clear
6:53 PM 82.0 °F 82.0 °F 57.9 °F 44% 29.89 in 10.0 mi SSW 11.5 mph - N/A   Clear
7:53 PM 80.1 °F 80.7 °F 59.0 °F 48% 29.88 in 10.0 mi SSW 9.2 mph - N/A   Clear
8:53 PM 80.1 °F 80.7 °F 59.0 °F 48% 29.88 in 10.0 mi SSW 10.4 mph - N/A   Partly Cloudy
9:53 PM 79.0 °F - 59.0 °F 50% 29.87 in 10.0 mi South 13.8 mph - N/A   Partly Cloudy
10:53 PM 78.1 °F - 59.0 °F 52% 29.86 in 10.0 mi SSW 12.7 mph 21.9 mph 0.00 in Rain Light Rain
11:53 PM 78.1 °F - 59.0 °F 52% 29.84 in 10.0 mi SSW 13.8 mph 24.2 mph 0.00 in   Scattered Clouds